EXS85L EGKK-LEPA

Flight info

Callsign EXS85L
Flight time N/A
Altitude 33000
Route BOGNA1X BOGNA L612 BENBO Y47 DRAKE L151 SITET UN859 SOPIL DCT BALAN DCT EVPOK DCT NARAK DCT GAI DCT LOMRA DCT ROCAN DCT IBRAP DCT LUKEV N13 LORES LORES1P
Aircraft A321/M-SDE3FGHIRWY/LB1

Departure

Time 2026-04-15 14:32
Airport London Gatwick Airport (EGKK)

Arrival

Time N/A
Airport Palma de Mallorca Airport (LEPA)
Time Latitude Longitude Altitude Speed Heading
2026-04-15 14:10 51.15462 -0.17159 204 ft 0 kts 36°
2026-04-15 14:24 51.15458 -0.17163 216 ft 3 kts 36°
2026-04-15 14:24 51.15436 -0.17189 206 ft 4 kts 36°
2026-04-15 14:24 51.15418 -0.17214 214 ft 4 kts 66°
2026-04-15 14:25 51.15417 -0.17249 215 ft 4 kts 124°
2026-04-15 14:25 51.15436 -0.17273 216 ft 2 kts 167°
2026-04-15 14:25 51.15456 -0.17281 213 ft 3 kts 167°
2026-04-15 14:25 51.15459 -0.17281 213 ft 0 kts 167°
2026-04-15 14:28 51.15444 -0.17276 216 ft 7 kts 168°
2026-04-15 14:29 51.15406 -0.17264 211 ft 8 kts 168°
2026-04-15 14:29 51.15350 -0.17245 204 ft 8 kts 168°
2026-04-15 14:29 51.15277 -0.17216 214 ft 14 kts 155°
2026-04-15 14:29 51.15201 -0.17115 210 ft 12 kts 116°
2026-04-15 14:30 51.15207 -0.16995 208 ft 11 kts 77°
2026-04-15 14:30 51.15219 -0.16916 212 ft 6 kts 76°
2026-04-15 14:30 51.15224 -0.16879 210 ft 1 kts 81°
2026-04-15 14:30 51.15224 -0.16868 207 ft 1 kts 86°
2026-04-15 14:31 51.15201 -0.16809 213 ft 16 kts 151°
2026-04-15 14:31 51.15130 -0.16794 206 ft 10 kts 210°
2026-04-15 14:31 51.15110 -0.16888 206 ft 9 kts 258°
2026-04-15 14:31 51.15080 -0.17103 208 ft 45 kts 257°
2026-04-15 14:32 51.14970 -0.17925 215 ft 106 kts 258°
2026-04-15 14:32 51.14774 -0.19341 208 ft 152 kts 256°
2026-04-15 14:32 51.14565 -0.21050 628 ft 160 kts 255°
2026-04-15 14:32 51.14371 -0.22778 1333 ft 156 kts 252°
2026-04-15 14:33 51.14148 -0.24449 2014 ft 151 kts 252°
2026-04-15 14:33 51.13906 -0.26087 2451 ft 159 kts 251°
2026-04-15 14:33 51.13629 -0.27910 2584 ft 181 kts 251°
2026-04-15 14:33 51.13319 -0.29979 2897 ft 201 kts 251°
2026-04-15 14:34 51.13007 -0.32145 3751 ft 200 kts 252°
2026-04-15 14:34 51.12700 -0.34315 4608 ft 202 kts 252°
2026-04-15 14:34 51.12386 -0.36540 4963 ft 207 kts 252°
2026-04-15 14:34 51.12069 -0.38785 5399 ft 207 kts 252°
2026-04-15 14:35 51.11481 -0.40819 6212 ft 203 kts 226°
2026-04-15 14:35 51.10274 -0.41983 6947 ft 210 kts 196°
2026-04-15 14:35 51.08783 -0.42016 7709 ft 218 kts 182°
2026-04-15 14:35 51.07263 -0.41821 8429 ft 225 kts 182°
2026-04-15 14:36 51.05629 -0.41611 8742 ft 246 kts 181°
2026-04-15 14:36 51.03881 -0.41384 9370 ft 255 kts 181°
2026-04-15 14:36 51.02103 -0.41146 10131 ft 258 kts 181°
2026-04-15 14:36 51.00303 -0.40901 10892 ft 261 kts 181°
2026-04-15 14:37 50.98488 -0.40654 11654 ft 263 kts 181°
2026-04-15 14:37 50.96654 -0.40419 12410 ft 265 kts 182°
2026-04-15 14:37 50.94807 -0.40189 13151 ft 268 kts 182°
2026-04-15 14:37 50.92938 -0.39958 13898 ft 270 kts 182°
2026-04-15 14:38 50.91055 -0.39723 14568 ft 272 kts 182°
2026-04-15 14:38 50.89184 -0.39485 15242 ft 275 kts 181°
2026-04-15 14:38 50.87270 -0.39237 15942 ft 277 kts 181°
2026-04-15 14:38 50.85342 -0.38991 16605 ft 280 kts 180°
2026-04-15 14:39 50.83406 -0.38395 17261 ft 289 kts 167°
2026-04-15 14:39 50.81564 -0.36968 17933 ft 301 kts 154°
2026-04-15 14:39 50.79811 -0.35132 18585 ft 303 kts 154°
2026-04-15 14:39 50.78048 -0.33295 19187 ft 304 kts 154°
2026-04-15 14:40 50.76279 -0.31458 19791 ft 304 kts 155°
2026-04-15 14:40 50.74504 -0.29624 20395 ft 305 kts 155°
2026-04-15 14:40 50.72724 -0.27787 21006 ft 306 kts 155°
2026-04-15 14:40 50.70959 -0.25962 21606 ft 307 kts 155°
2026-04-15 14:41 50.69161 -0.24106 22042 ft 315 kts 155°
2026-04-15 14:41 50.67281 -0.22163 22175 ft 330 kts 155°
2026-04-15 14:41 50.65324 -0.20122 22311 ft 345 kts 154°
2026-04-15 14:41 50.63291 -0.17987 22425 ft 357 kts 154°
2026-04-15 14:42 50.61199 -0.15791 22722 ft 365 kts 154°
2026-04-15 14:42 50.59080 -0.13563 23181 ft 368 kts 154°
2026-04-15 14:42 50.56947 -0.11315 23684 ft 370 kts 154°
2026-04-15 14:42 50.54799 -0.09057 24086 ft 372 kts 155°
2026-04-15 14:43 50.52641 -0.06799 24486 ft 374 kts 155°
2026-04-15 14:43 50.50470 -0.04539 24883 ft 376 kts 155°
2026-04-15 14:43 50.48243 -0.02396 25264 ft 371 kts 161°
2026-04-15 14:43 50.45853 -0.00983 25607 ft 365 kts 172°
2026-04-15 14:44 50.43357 -0.00382 25916 ft 361 kts 182°
2026-04-15 14:44 50.40886 -0.00566 26220 ft 360 kts 192°
2026-04-15 14:44 50.38435 -0.01385 26603 ft 361 kts 195°
2026-04-15 14:44 50.35985 -0.02271 27022 ft 362 kts 195°
2026-04-15 14:45 50.33522 -0.03154 27412 ft 364 kts 195°
2026-04-15 14:45 50.31047 -0.04036 27787 ft 366 kts 195°
2026-04-15 14:45 50.28557 -0.04918 28130 ft 368 kts 195°
2026-04-15 14:45 50.26050 -0.05806 28485 ft 370 kts 195°
2026-04-15 14:46 50.23506 -0.06544 28819 ft 374 kts 188°
2026-04-15 14:46 50.20880 -0.06520 29142 ft 383 kts 178°
2026-04-15 14:46 50.18243 -0.05642 29408 ft 394 kts 168°
2026-04-15 14:46 50.15671 -0.03991 29655 ft 403 kts 163°
2026-04-15 14:47 50.13138 -0.02227 29945 ft 405 kts 163°
2026-04-15 14:47 50.10552 -0.00453 30160 ft 405 kts 166°
2026-04-15 14:47 50.07876 0.00843 30334 ft 403 kts 172°
2026-04-15 14:47 50.05143 0.01934 30581 ft 405 kts 172°
2026-04-15 14:48 50.02407 0.03013 30847 ft 406 kts 172°
2026-04-15 14:48 49.99668 0.04086 31214 ft 405 kts 172°
2026-04-15 14:48 49.96937 0.05152 31580 ft 404 kts 172°
2026-04-15 14:48 49.94201 0.06220 31870 ft 406 kts 173°
2026-04-15 14:49 49.91489 0.07281 32181 ft 406 kts 173°
2026-04-15 14:49 49.88744 0.08356 32538 ft 406 kts 173°
2026-04-15 14:49 49.86008 0.09429 32920 ft 405 kts 173°
2026-04-15 14:49 49.83275 0.10502 33094 ft 404 kts 173°
2026-04-15 14:50 49.80580 0.11568 33124 ft 395 kts 173°
2026-04-15 14:50 49.75327 0.13631 33132 ft 390 kts 173°
2026-04-15 14:51 49.70043 0.15681 33133 ft 392 kts 173°
2026-04-15 14:51 49.64754 0.17748 33136 ft 392 kts 173°
2026-04-15 14:52 49.59469 0.19888 33141 ft 393 kts 172°
2026-04-15 14:52 49.54190 0.22032 33141 ft 393 kts 173°
2026-04-15 14:53 49.48900 0.24161 33104 ft 393 kts 173°
2026-04-15 14:53 49.43588 0.26274 33082 ft 395 kts 173°
2026-04-15 14:54 49.38262 0.28398 33093 ft 396 kts 173°
2026-04-15 14:54 49.32922 0.30535 33092 ft 396 kts 173°
2026-04-15 14:55 49.27582 0.32696 33085 ft 398 kts 172°
2026-04-15 14:55 49.22245 0.34952 33099 ft 399 kts 172°
2026-04-15 14:56 49.16929 0.37226 33130 ft 399 kts 172°
2026-04-15 14:56 49.11578 0.39491 33139 ft 399 kts 172°
2026-04-15 14:57 49.06215 0.41734 33121 ft 401 kts 173°
2026-04-15 14:57 49.00810 0.43984 33084 ft 403 kts 172°
2026-04-15 14:58 48.95357 0.46253 33144 ft 408 kts 172°
2026-04-15 14:58 48.89886 0.48533 33151 ft 408 kts 172°
2026-04-15 14:59 48.84413 0.50806 33160 ft 408 kts 172°
2026-04-15 14:59 48.78939 0.53077 33162 ft 408 kts 172°
2026-04-15 15:00 48.73460 0.55273 33169 ft 407 kts 173°
2026-04-15 15:00 48.67977 0.57393 33167 ft 406 kts 173°
2026-04-15 15:01 48.62502 0.59521 33144 ft 407 kts 173°
2026-04-15 15:01 48.57967 0.61283 33143 ft 407 kts 173°
2026-04-15 15:02 48.51557 0.63776 33151 ft 408 kts 173°
2026-04-15 15:02 48.46045 0.66005 33157 ft 409 kts 172°
2026-04-15 15:03 48.40543 0.68270 33137 ft 410 kts 172°
2026-04-15 15:03 48.35027 0.70518 33150 ft 411 kts 172°
2026-04-15 15:04 48.29535 0.72729 33154 ft 411 kts 172°
2026-04-15 15:04 48.24007 0.74959 33158 ft 412 kts 172°
2026-04-15 15:05 48.18452 0.77156 33152 ft 415 kts 173°
2026-04-15 15:05 48.12851 0.79348 33165 ft 416 kts 172°
2026-04-15 15:06 48.04457 0.82636 33166 ft 416 kts 172°
2026-04-15 15:06 47.99800 0.84458 33145 ft 416 kts 172°
2026-04-15 15:07 47.93231 0.87033 33166 ft 418 kts 172°
2026-04-15 15:07 47.87595 0.89221 33183 ft 418 kts 172°
2026-04-15 15:08 47.81960 0.91408 33182 ft 418 kts 172°
2026-04-15 15:08 47.76323 0.93591 33154 ft 418 kts 172°
2026-04-15 15:09 47.70715 0.95755 33164 ft 419 kts 172°
2026-04-15 15:09 47.65985 0.97580 33165 ft 419 kts 172°
2026-04-15 15:10 47.59407 1.00112 33170 ft 420 kts 172°
2026-04-15 15:10 47.53748 1.02290 33163 ft 420 kts 172°
2026-04-15 15:11 47.48073 1.04461 33169 ft 421 kts 172°
2026-04-15 15:11 47.42414 1.06278 33176 ft 414 kts 181°
2026-04-15 15:12 47.36704 1.06294 33161 ft 410 kts 186°
2026-04-15 15:12 47.31925 1.06178 33168 ft 410 kts 186°
2026-04-15 15:13 47.26205 1.06048 33174 ft 411 kts 186°
2026-04-15 15:13 47.20472 1.05927 33184 ft 412 kts 186°
2026-04-15 15:14 47.13801 1.05769 33169 ft 412 kts 186°
2026-04-15 15:14 47.08059 1.05631 33179 ft 413 kts 186°
2026-04-15 15:15 47.02312 1.05490 33194 ft 413 kts 186°
2026-04-15 15:15 46.97538 1.05324 33189 ft 413 kts 187°
2026-04-15 15:16 46.90818 1.05010 33184 ft 414 kts 187°
2026-04-15 15:16 46.85053 1.04744 33189 ft 414 kts 187°
2026-04-15 15:17 46.80259 1.04541 33199 ft 414 kts 187°
2026-04-15 15:17 46.73562 1.04261 33202 ft 414 kts 187°
2026-04-15 15:18 46.68705 1.04044 33301 ft 421 kts 187°
2026-04-15 15:18 46.65745 1.03914 33455 ft 426 kts 187°
2026-04-15 15:18 46.62773 1.03786 33749 ft 428 kts 187°
2026-04-15 15:19 46.59800 1.03666 34134 ft 427 kts 187°
2026-04-15 15:19 46.56835 1.03552 34487 ft 426 kts 187°
2026-04-15 15:19 46.53868 1.03440 34760 ft 427 kts 185°
2026-04-15 15:19 46.50923 1.03691 35027 ft 433 kts 177°
2026-04-15 15:20 46.47950 1.04550 35312 ft 437 kts 172°
2026-04-15 15:20 46.44988 1.05553 35596 ft 437 kts 173°
2026-04-15 15:20 46.42029 1.06549 35886 ft 437 kts 173°
2026-04-15 15:20 46.39059 1.07543 36154 ft 437 kts 173°
2026-04-15 15:21 46.36091 1.08534 36423 ft 437 kts 173°
2026-04-15 15:21 46.33133 1.09516 36661 ft 438 kts 173°
2026-04-15 15:21 46.30190 1.10490 36908 ft 438 kts 173°
2026-04-15 15:21 46.27221 1.11474 37157 ft 438 kts 173°
2026-04-15 15:22 46.24248 1.12460 37401 ft 438 kts 173°
2026-04-15 15:22 46.22279 1.13113 37559 ft 438 kts 173°
2026-04-15 15:22 46.18301 1.14430 37904 ft 438 kts 173°
2026-04-15 15:22 46.15329 1.15417 38120 ft 438 kts 173°
2026-04-15 15:23 46.12354 1.16406 38304 ft 439 kts 173°
2026-04-15 15:23 46.09420 1.17381 38504 ft 439 kts 173°
2026-04-15 15:23 46.07407 1.18047 38638 ft 439 kts 173°
2026-04-15 15:23 46.03465 1.19344 38906 ft 439 kts 173°
2026-04-15 15:24 46.01451 1.20006 39030 ft 438 kts 173°
2026-04-15 15:24 45.97510 1.21300 39217 ft 439 kts 173°
2026-04-15 15:24 45.91542 1.23260 39247 ft 440 kts 173°
2026-04-15 15:25 45.85571 1.25221 39247 ft 440 kts 173°
2026-04-15 15:25 45.79594 1.27171 39247 ft 440 kts 173°
2026-04-15 15:26 45.73622 1.29118 39243 ft 441 kts 173°
2026-04-15 15:26 45.67631 1.31070 39233 ft 441 kts 173°
2026-04-15 15:27 45.61637 1.33015 39229 ft 441 kts 173°
2026-04-15 15:27 45.55644 1.34961 39213 ft 442 kts 173°
2026-04-15 15:28 45.49649 1.36908 39209 ft 442 kts 173°
2026-04-15 15:28 45.43686 1.38823 39213 ft 443 kts 173°
2026-04-15 15:29 45.37670 1.40751 39220 ft 443 kts 173°
2026-04-15 15:29 45.31655 1.42693 39210 ft 444 kts 173°
2026-04-15 15:30 45.25627 1.44629 39213 ft 444 kts 173°
2026-04-15 15:30 45.19589 1.46561 39218 ft 444 kts 173°
2026-04-15 15:31 45.13550 1.48488 39210 ft 445 kts 173°
2026-04-15 15:31 45.07538 1.50403 39215 ft 445 kts 173°
2026-04-15 15:32 45.01487 1.52325 39225 ft 446 kts 173°
2026-04-15 15:32 44.95423 1.54256 39193 ft 447 kts 173°
2026-04-15 15:33 44.89352 1.56174 39195 ft 448 kts 173°
2026-04-15 15:33 44.83262 1.58085 39212 ft 448 kts 173°
2026-04-15 15:34 44.77170 1.60004 39219 ft 449 kts 173°
2026-04-15 15:34 44.71069 1.61940 39219 ft 449 kts 173°
2026-04-15 15:35 44.65015 1.63848 39220 ft 449 kts 173°
2026-04-15 15:35 44.58914 1.65744 39207 ft 449 kts 173°
2026-04-15 15:36 44.52810 1.67647 39215 ft 450 kts 173°
2026-04-15 15:36 44.46690 1.69553 39220 ft 450 kts 173°
2026-04-15 15:37 44.40570 1.71455 39203 ft 450 kts 173°
2026-04-15 15:37 44.34450 1.73361 39201 ft 451 kts 173°
2026-04-15 15:38 44.28319 1.75233 39204 ft 451 kts 174°
2026-04-15 15:38 44.22152 1.76705 39208 ft 449 kts 177°
2026-04-15 15:39 44.15967 1.77938 39201 ft 449 kts 177°
2026-04-15 15:39 44.09774 1.79223 39205 ft 450 kts 176°
2026-04-15 15:40 44.03569 1.80587 39212 ft 451 kts 176°
2026-04-15 15:40 43.97412 1.81965 39200 ft 452 kts 176°
2026-04-15 15:41 43.91193 1.83069 39202 ft 449 kts 181°
2026-04-15 15:41 43.84964 1.83607 39209 ft 448 kts 183°
2026-04-15 15:42 43.78728 1.84046 39200 ft 449 kts 182°
2026-04-15 15:42 43.72472 1.84592 39205 ft 450 kts 181°
2026-04-15 15:43 43.66208 1.85216 39215 ft 451 kts 181°
2026-04-15 15:43 43.59949 1.85847 39198 ft 451 kts 181°
2026-04-15 15:44 43.53710 1.86461 39200 ft 452 kts 181°
2026-04-15 15:44 43.47426 1.87068 39196 ft 453 kts 181°
2026-04-15 15:45 43.41139 1.87668 39187 ft 453 kts 181°
2026-04-15 15:45 43.34839 1.88268 39181 ft 454 kts 181°
2026-04-15 15:46 43.28526 1.88867 39167 ft 454 kts 181°
2026-04-15 15:46 43.22213 1.89464 39185 ft 455 kts 181°
2026-04-15 15:47 43.15890 1.90074 39177 ft 456 kts 181°
2026-04-15 15:47 43.09598 1.90685 39181 ft 456 kts 181°
2026-04-15 15:48 43.03249 1.91289 39170 ft 457 kts 180°
2026-04-15 15:48 42.96893 1.91881 39154 ft 459 kts 180°
2026-04-15 15:49 42.90515 1.92478 39167 ft 460 kts 180°
2026-04-15 15:49 42.84114 1.93088 39174 ft 462 kts 180°
2026-04-15 15:50 42.77741 1.93686 39180 ft 462 kts 180°
2026-04-15 15:50 42.71327 1.94287 39180 ft 462 kts 180°
2026-04-15 15:51 42.64928 1.95508 39172 ft 468 kts 168°
2026-04-15 15:51 42.58632 1.97792 39167 ft 469 kts 168°
2026-04-15 15:52 42.52316 2.00067 39154 ft 470 kts 168°
2026-04-15 15:52 42.46030 2.02322 39153 ft 470 kts 168°
2026-04-15 15:53 42.39704 2.04582 39150 ft 470 kts 168°
2026-04-15 15:53 42.33372 2.06848 39130 ft 470 kts 168°
2026-04-15 15:54 42.27083 2.09080 39136 ft 471 kts 168°
2026-04-15 15:54 42.20747 2.11321 39130 ft 471 kts 168°
2026-04-15 15:55 42.14412 2.13565 39119 ft 471 kts 168°
2026-04-15 15:55 42.08062 2.15807 39121 ft 472 kts 168°
2026-04-15 15:56 42.01706 2.18053 39123 ft 472 kts 168°
2026-04-15 15:56 41.95355 2.20290 39111 ft 472 kts 168°
2026-04-15 15:57 41.88985 2.22532 39112 ft 473 kts 168°
2026-04-15 15:57 41.83687 2.24390 39121 ft 474 kts 168°
2026-04-15 15:58 41.76266 2.26970 39125 ft 474 kts 168°
2026-04-15 15:58 41.69880 2.29203 39135 ft 475 kts 168°
2026-04-15 15:59 41.63479 2.31440 39134 ft 475 kts 168°
2026-04-15 15:59 41.57076 2.33671 39139 ft 476 kts 168°
2026-04-15 16:00 41.50659 2.35893 38974 ft 478 kts 168°
2026-04-15 16:00 41.47435 2.37011 38741 ft 479 kts 168°
2026-04-15 16:00 41.44209 2.38133 38469 ft 479 kts 168°
2026-04-15 16:01 41.40975 2.39255 38134 ft 479 kts 168°
2026-04-15 16:01 41.37746 2.40375 37443 ft 480 kts 168°
2026-04-15 16:01 41.34508 2.41493 36797 ft 481 kts 168°
2026-04-15 16:01 41.32360 2.42232 36320 ft 482 kts 168°
2026-04-15 16:02 41.27995 2.43726 35223 ft 489 kts 168°
2026-04-15 16:02 41.24675 2.44861 34303 ft 496 kts 168°
2026-04-15 16:02 41.21308 2.46016 33465 ft 499 kts 167°
2026-04-15 16:02 41.17968 2.47166 32916 ft 494 kts 167°
2026-04-15 16:03 41.14644 2.48312 32295 ft 493 kts 167°
2026-04-15 16:03 41.11332 2.49452 31665 ft 491 kts 167°
2026-04-15 16:03 41.08074 2.50570 31053 ft 489 kts 167°
2026-04-15 16:03 41.04787 2.51694 30453 ft 487 kts 167°
2026-04-15 16:04 41.01512 2.52808 29784 ft 485 kts 167°
2026-04-15 16:04 40.98263 2.53915 29198 ft 480 kts 166°
2026-04-15 16:04 40.95036 2.55017 28593 ft 476 kts 166°
2026-04-15 16:04 40.91845 2.56105 28016 ft 472 kts 166°
2026-04-15 16:05 40.88675 2.57179 27447 ft 468 kts 166°
2026-04-15 16:05 40.86549 2.57899 27061 ft 465 kts 166°
2026-04-15 16:05 40.82419 2.59302 26346 ft 460 kts 166°
2026-04-15 16:05 40.79323 2.60357 25810 ft 457 kts 166°
2026-04-15 16:06 40.76257 2.61403 25293 ft 453 kts 166°
2026-04-15 16:06 40.73217 2.62437 24777 ft 449 kts 166°
2026-04-15 16:06 40.70199 2.63455 24272 ft 445 kts 166°
2026-04-15 16:06 40.67206 2.64459 23755 ft 442 kts 166°
2026-04-15 16:07 40.64235 2.65459 23179 ft 438 kts 165°
2026-04-15 16:07 40.62287 2.66117 22846 ft 435 kts 165°
2026-04-15 16:07 40.56495 2.68075 21821 ft 425 kts 165°
2026-04-15 16:08 40.52680 2.69359 21132 ft 420 kts 165°
2026-04-15 16:08 40.49936 2.70463 20643 ft 415 kts 156°
2026-04-15 16:08 40.48184 2.71564 20315 ft 411 kts 149°
2026-04-15 16:08 40.44889 2.73958 19671 ft 407 kts 149°
2026-04-15 16:09 40.43218 2.75172 19345 ft 405 kts 149°
2026-04-15 16:09 40.40759 2.76955 18870 ft 402 kts 149°
2026-04-15 16:09 40.37528 2.79294 18215 ft 399 kts 149°
2026-04-15 16:09 40.35891 2.80478 17881 ft 396 kts 149°
2026-04-15 16:10 40.33524 2.82188 17434 ft 392 kts 149°
2026-04-15 16:10 40.31146 2.83908 16975 ft 388 kts 149°
2026-04-15 16:10 40.28795 2.85608 16527 ft 384 kts 149°
2026-04-15 16:10 40.26462 2.87298 16083 ft 380 kts 148°
2026-04-15 16:11 40.24384 2.89375 15635 ft 373 kts 134°
2026-04-15 16:11 40.22538 2.91734 15202 ft 369 kts 132°
2026-04-15 16:11 40.20729 2.94089 14771 ft 366 kts 132°
2026-04-15 16:11 40.18929 2.96434 14350 ft 363 kts 132°
2026-04-15 16:12 40.17145 2.98760 13925 ft 361 kts 132°
2026-04-15 16:12 40.15377 3.01072 13453 ft 358 kts 132°
2026-04-15 16:12 40.13627 3.03370 13004 ft 355 kts 132°
2026-04-15 16:12 40.11894 3.05649 12617 ft 351 kts 132°
2026-04-15 16:13 40.10171 3.07880 12244 ft 346 kts 134°
2026-04-15 16:13 40.08641 3.09831 11886 ft 343 kts 133°
2026-04-15 16:13 40.06969 3.12033 11492 ft 339 kts 132°
2026-04-15 16:13 40.05320 3.14213 11098 ft 336 kts 132°
2026-04-15 16:14 40.03685 3.16377 10663 ft 334 kts 132°
2026-04-15 16:14 40.02059 3.18536 10238 ft 333 kts 132°
2026-04-15 16:14 40.00473 3.20648 9796 ft 331 kts 132°
2026-04-15 16:14 39.98871 3.22785 9327 ft 329 kts 132°
2026-04-15 16:15 39.97269 3.24918 8862 ft 328 kts 132°
2026-04-15 16:15 39.95678 3.27037 8408 ft 326 kts 132°
2026-04-15 16:15 39.94097 3.29143 7960 ft 324 kts 132°
2026-04-15 16:15 39.92525 3.31239 7510 ft 322 kts 132°
2026-04-15 16:16 39.90962 3.33323 7077 ft 320 kts 133°
2026-04-15 16:16 39.89234 3.35122 6639 ft 320 kts 152°
2026-04-15 16:16 39.87156 3.36148 6187 ft 318 kts 161°
2026-04-15 16:16 39.85052 3.37005 5732 ft 316 kts 162°
2026-04-15 16:17 39.82984 3.37922 5328 ft 312 kts 159°
2026-04-15 16:17 39.81173 3.38837 4935 ft 310 kts 161°